Overview Statistics Trail Chart Weather Telemetry Raw packets
 

This is the latest recevied weather packets stored in our database for station/object IW1RCO-13. If no packets are shown the sender has not sent any weather packets the latest 10 day(s).

<< 7 8 9 10 11 12 13 >>
Time Temp. Humidity Pressure Rain* Wind** Luminosity Snow
1788621869 27.78° C 71% 1017.1 hPa - - - -
1788621572 27.22° C 72% 1017.2 hPa - - - -
1788621269 27.78° C 70% 1018.4 hPa - - - -
1788620972 28.33° C 69% 1017.3 hPa - - - -
1788619171 28.89° C 66% 1017.6 hPa - - - -
1788618868 28.33° C 69% 1017.4 hPa - - - -
1788618571 27.22° C 70% 1018.4 hPa - - - -
1788618268 27.78° C 70% 1017.8 hPa - - - -
1788617667 28.33° C 69% 1017.6 hPa - - - -
1788617371 28.33° C 69% 1017.6 hPa - - - -
1788617067 27.78° C 69% 1017.5 hPa - - - -
1788616770 28.33° C 67% 1018.1 hPa - - - -
1788616467 29.44° C 65% 1018.1 hPa - - - -
1788616170 28.33° C 68% 1019.2 hPa - - - -
1788615873 28.89° C 67% 1017.7 hPa - - - -
1788615570 28.89° C 67% 1018.2 hPa - - - -
1788615273 28.33° C 67% 1018.4 hPa - - - -
1788614970 28.33° C 65% 1018.4 hPa - - - -
1788614673 28.33° C 67% 1019 hPa - - - -
1788614369 28.33° C 65% 1017.9 hPa - - - -
1788614079 28.33° C 67% 1018.9 hPa - - - -
1788613769 28.89° C 65% 1018 hPa - - - -
1788613472 28.89° C 65% 1018.2 hPa - - - -
1788613169 28.33° C 66% 1018.5 hPa - - - -
1788612872 28.33° C 66% 1018.4 hPa - - - -

* Rain since midnight (hover to see other rain measurements)
** Current wind speed in m/s (hover to see current wind gust speed)